TimePST,TemperatureF,Dew PointF,Humidity,Sea Level PressureIn,VisibilityMPH,Wind Direction,Wind SpeedMPH,Gust SpeedMPH,PrecipitationIn,Events,Conditions,WindDirDegrees,DateUTC
12:00 AM,12.2,3.2,67,30.45,15.0,North,3.5,-,N/A,,Partly Cloudy,360,2013-12-08 08:00:00
1:00 AM,15.8,6.8,68,30.45,15.0,NNW,3.5,-,N/A,,Overcast,340,2013-12-08 09:00:00
2:00 AM,17.6,6.8,63,30.46,15.0,NNW,2.3,-,N/A,,Overcast,340,2013-12-08 10:00:00
3:00 AM,17.6,6.8,63,30.47,15.0,NNE,3.5,-,N/A,,Overcast,20,2013-12-08 11:00:00
4:00 AM,18,6,46,30.47,15,NNE,4.6,,,,Overcast,20,2013-12-08 12:00:00
4:00 AM,17.6,6.8,63,30.47,15.0,NNE,3.5,-,N/A,,Overcast,20,2013-12-08 12:00:00
5:00 AM,19.4,6.8,58,30.47,15.0,NNE,4.6,-,N/A,,Overcast,20,2013-12-08 13:00:00
6:00 AM,19.4,6.8,58,30.49,15.0,NNE,4.6,-,N/A,,Overcast,30,2013-12-08 14:00:00
7:00 AM,19.4,8.6,63,30.51,20.0,NE,3.5,-,N/A,,Overcast,40,2013-12-08 15:00:00
8:00 AM,19.4,8.6,63,30.52,20.0,NNW,2.3,-,N/A,,Overcast,340,2013-12-08 16:00:00
9:00 AM,21.2,8.6,58,30.53,15.0,NNE,3.5,-,N/A,,Mostly Cloudy,20,2013-12-08 17:00:00
10:00 AM,22,9,42,30.54,19,NE,2.3,,,,Mostly Cloudy,40,2013-12-08 18:00:00
10:00 AM,21.2,8.6,58,30.54,20.0,NNE,2.3,-,N/A,,Mostly Cloudy,30,2013-12-08 18:00:00
11:00 AM,23.0,8.6,54,30.55,25.0,NNE,3.5,-,N/A,,Mostly Cloudy,20,2013-12-08 19:00:00
12:00 PM,24.8,10.4,54,30.54,30.0,East,3.5,-,N/A,,Scattered Clouds,80,2013-12-08 20:00:00
1:00 PM,28.4,10.4,47,30.53,30.0,East,5.8,-,N/A,,Scattered Clouds,80,2013-12-08 21:00:00
2:00 PM,28.4,10.4,47,30.53,30.0,SE,3.5,-,N/A,,Partly Cloudy,130,2013-12-08 22:00:00
3:00 PM,28.4,10.4,47,30.54,30.0,SE,2.3,-,N/A,,Partly Cloudy,130,2013-12-08 23:00:00
4:00 PM,26,9,34,30.55,28,East,5.8,,,,Clear,90,2013-12-09 00:00:00
4:00 PM,24.8,8.6,50,30.55,30.0,East,5.8,-,N/A,,Partly Cloudy,90,2013-12-09 00:00:00
5:00 PM,24.8,8.6,50,30.55,15.0,East,3.5,-,N/A,,Clear,80,2013-12-09 01:00:00
6:00 PM,21.2,8.6,58,30.53,15.0,Calm,Calm,-,N/A,,Clear,0,2013-12-09 02:00:00
7:00 PM,19.4,10.4,68,30.54,15.0,NNE,2.3,-,N/A,,Clear,20,2013-12-09 03:00:00
8:00 PM,19.4,10.4,68,30.56,15.0,North,2.3,-,N/A,,Clear,350,2013-12-09 04:00:00
9:00 PM,17.6,10.4,73,30.58,15.0,NNE,4.6,-,N/A,,Clear,30,2013-12-09 05:00:00
10:00 PM,18,11,63,30.58,15,Calm,Calm,,,,Mostly Cloudy,,2013-12-09 06:00:00
10:00 PM,17.6,10.4,73,30.58,15.0,Calm,Calm,-,N/A,,Mostly Cloudy,0,2013-12-09 06:00:00
11:00 PM,15.8,10.4,79,30.58,15.0,NNW,2.3,-,N/A,,Scattered Clouds,340,2013-12-09 07:00:00